Flag for Norway Weather past 2 weeks in Halden, Norway

Now
40 °F

Quite cool.


Feels Like: 34 °F
Forecast: 34 / 41 °F
Wind: 9 mph from Southwest

Location: Stromtangen Fyr

Current Time: Mar 29, 2015 at 9:56:07 AM

Latest Report: Mar 29, 2015 at 9:00 AM


Visibility: N/A

Pressure: 29.15 "Hg

Humidity: 96%

Dew point: 39 °F

Location of HaldenLocation

Historic Weather in Halden — Graph

°F

Halden temperature yesterday

Maximum temperature yesterday: 40 °F (at 8:00 PM)
Minimum temperature yesterday: 28 °F (at 5:00 AM)
Average temperature yesterday: 36 °F

Past Weeks' High & Low Weather Summary

 TemperatureHumidityPressure
High49 °F (Mar 14, 3:00 PM)97% (Mar 19, 7:00 AM)30.84 "Hg (Mar 19, 7:00 AM)
Low28 °F (Mar 28, 5:00 AM)25% (Mar 14, 3:00 PM)29.15 "Hg (Mar 29, 8:00 AM)
Average38 °F79%30.18 "Hg
* Reported Mar 14 7:00 AM — Mar 29 8:00 AM, Halden, Weather by CustomWeather, © 2015

Note: Actual official high and low records may vary slightly from our data, if they occured in-between our weather recording intervals... More about our weather records

Advertising

Halden weather history for previous 24 hours

 ConditionsComfort  
Time TempWeatherWind HumidityBarometerVisibility
8:00 AM
Sun, Mar 29
40 °FQuite cool.10 mph97%29.15 "HgN/A
7:00 AM40 °FQuite cool.10 mph96%29.18 "HgN/A
6:00 AM40 °FChilly.13 mph95%29.21 "HgN/A
5:00 AM40 °FChilly.15 mph94%29.23 "HgN/A
4:00 AM38 °FChilly.13 mph93%29.26 "HgN/A
3:00 AM37 °FChilly.12 mph93%29.32 "HgN/A
1:00 AM37 °FChilly.12 mph91%29.38 "HgN/A
12:00 AM38 °FChilly.16 mph91%29.41 "HgN/A
11:00 PM
Sat, Mar 28
38 °FChilly.15 mph90%29.47 "HgN/A
9:00 PM40 °FChilly.14 mph84%29.59 "HgN/A
8:00 PM40 °FQuite cool.12 mph82%29.63 "HgN/A
7:00 PM39 °FChilly.12 mph91%29.67 "HgN/A
6:00 PM38 °FChilly.12 mph93%29.72 "HgN/A
5:00 PM39 °FChilly.10 mph93%29.75 "HgN/A
4:00 PM39 °FChilly.10 mph92%29.79 "HgN/A
3:00 PM40 °FChilly.9 mph89%29.82 "HgN/A
2:00 PM40 °FChilly.9 mph88%29.84 "HgN/A
1:00 PM40 °FChilly.8 mph84%29.87 "HgN/A
12:00 PM40 °FChilly.7 mph82%29.88 "HgN/A
11:00 AM38 °FChilly.1 mph93%29.90 "HgN/A
10:00 AM33 °FChilly.3 mph96%29.91 "HgN/A
9:00 AM32 °FChilly.3 mph97%29.92 "HgN/A
Weather by CustomWeather, © 2015

See weather overviewHow to use our weather pages